[[{"header":{"parameterUnit":"m.s-1","parameterCategory":1,"la1":30.2991,"la2":30.254,"lo1":-89.0895,"lo2":-89.0444,"dy":0.0017,"dx":0.0017,"nx":28,"ny":28,"refTime":"2024-05-09T09:00:00:Z","depth":0,"parameterNumber":2,"parameterNumberName":"U-component_of_WINDS"},"data":[0,0,0,0,0,0,0,0,0,0,0,0,0,0,0,0,0,0,0,0,0,0,0,0,0,0,0,0,0,0,0,0,0,0,0,0,0,0,0,0,0,0,0,0,0,0,0,0,0,0,0,0,0,0,0,0,0,0,-2.0483,-2.0483,0,-2.0482,-2.0482,-2.0482,-2.0436,-2.0435,-2.0434,-2.0433,-2.0433,-2.0434,-2.0435,0,0,0,0,0,0,0,0,0,0,0,0,0,-2.0446,-2.0447,-2.0483,-2.0483,-2.0483,-2.0482,-2.0482,-2.0482,-2.0437,-2.0435,-2.0434,-2.0432,-2.0432,-2.0434,-2.0435,0,0,0,0,0,0,0,0,0,0,0,0,0,-2.0455,-2.0447,-2.0483,-2.046,-2.0458,-2.0482,-2.0482,-2.0482,-2.0437,-2.0435,-2.0433,-2.0432,-2.0432,-2.0433,-2.0435,-2.0481,0,0,-2.044,-2.0441,0,0,0,0,0,0,0,0,-2.0455,-2.0457,-2.0463,-2.0462,-2.0459,-2.0457,-2.0469,-2.0481,-2.0437,-2.0445,-2.0433,-2.0431,-2.0442,-2.0443,-2.0447,-2.0481,-2.0481,-2.044,-2.0441,-2.0442,-2.0442,0,0,0,0,0,0,0,-2.0454,-2.0456,-2.0482,-2.0464,-2.0461,-2.045,-2.0449,-2.0471,-2.0454,-2.0444,-2.0441,-2.0441,-2.0441,-2.0445,-2.0446,-2.0481,-2.044,-2.0442,-2.0443,-2.0443,-2.0551,-2.0553,0,0,0,0,0,0,-2.0457,-2.0456,-2.0482,-2.0482,-2.0453,-2.0452,-2.0451,-2.046,-2.0453,-2.0451,-2.0443,-2.0439,-2.0443,-2.0445,-2.0446,-2.0498,-2.0442,-2.0443,-2.0444,-2.0549,-2.0552,-2.0554,0,0,0,0,0,0,-2.0456,-2.0459,-2.0482,-2.0468,-2.047,-2.0455,-2.0464,-2.0461,-2.0465,-2.0452,-2.0449,-2.045,-2.0442,-2.0444,-2.0472,-2.0498,-2.0444,-2.0446,-2.0547,-2.055,-2.0553,-2.0604,0,0,0,0,0,0,-2.0455,-2.0459,-2.0476,-2.0469,-2.0471,-2.0508,-2.0466,-2.0462,-2.0468,-2.0463,-2.0458,-2.0456,-2.0441,-2.047,-2.0474,-2.0499,-2.0447,-2.0545,-2.0548,-2.0552,-2.06,-2.0608,-2.0615,0,0,0,0,0,-2.0454,-2.0491,-2.0477,-2.0481,-2.0492,-2.051,-2.0511,-2.0493,-2.047,-2.0487,-2.0479,-2.0456,-2.0495,-2.0473,-2.0477,-2.0503,-2.0543,-2.0547,-2.0551,-2.0596,-2.0606,-2.0615,0,0,0,0,0,0,-2.0502,-2.049,-2.0474,-2.051,-2.0512,-2.0502,-2.0523,-2.0504,-2.0512,-2.0507,-2.0484,-2.0483,-2.0515,-2.0512,-2.0489,-2.0547,-2.0515,-2.052,-2.0547,-2.0557,-2.0564,-2.0564,-2.0448,0,0,0,0,0,-2.0517,-2.0532,-2.0521,-2.0553,-2.0555,-2.0539,-2.0546,-2.0532,-2.0532,-2.0532,-2.0526,-2.0527,-2.054,-2.0548,-2.0559,-2.0599,-2.0597,-2.0619,-2.0627,-2.0633,-2.0638,-2.0658,-2.0668,-2.0567,-2.0567,-2.0567,0,0,-2.0548,-2.0543,-2.0554,-2.0563,-2.0562,-2.0578,-2.054,-2.0559,-2.057,-2.0535,-2.0561,-2.0557,-2.0557,-2.0591,-2.0606,-2.059,-2.0665,-2.0639,-2.0644,-2.0645,-2.0664,-2.0673,-2.0681,-2.057,-2.057,-2.0569,0,0,-2.0612,-2.061,-2.0636,-2.0636,-2.0635,-2.0625,-2.0631,-2.0625,-2.0621,-2.0646,-2.062,-2.0634,-2.0656,-2.0657,-2.066,-2.0725,-2.0704,-2.0729,-2.0769,-2.0789,-2.0797,-2.0804,-2.0826,-2.0834,-2.0734,-2.0734,-2.0734,0,-2.065,-2.0673,-2.0653,-2.0673,-2.0678,-2.0647,-2.0673,-2.0674,-2.0677,-2.0681,-2.0663,-2.0689,-2.0687,-2.0721,-2.0737,-2.0741,-2.0747,-2.0729,-2.0797,-2.0804,-2.081,-2.0831,-2.0839,-2.0737,-2.0736,-2.0736,-2.0736,0,-2.072,-2.0736,-2.0758,-2.0761,-2.0768,-2.0792,-2.0775,-2.0785,-2.077,-2.0762,-2.0788,-2.0784,-2.0794,-2.0801,-2.0787,-2.0833,-2.0822,-2.0801,-2.0768,-2.0823,-2.0842,-2.085,-2.0741,-2.074,-2.0739,-2.0738,0,0,-2.0814,-2.0805,-2.0813,-2.0814,-2.0811,-2.0823,-2.0846,-2.0854,-2.0863,-2.0866,-2.0884,-2.0903,-2.0883,-2.0887,-2.0873,-2.0891,-2.0941,-2.0867,-2.0867,-2.088,-2.0991,-2.1006,-2.1016,-2.0928,-2.0929,-2.093,-2.0991,0,-2.0875,-2.0912,-2.0894,-2.0933,-2.0948,-2.0919,-2.0938,-2.0938,-2.0931,-2.0942,-2.0934,-2.0948,-2.0921,-2.0923,-2.094,-2.0932,-2.0963,-2.0927,-2.0944,-2.0945,-2.0944,-2.1026,-2.1042,-2.1099,-2.0998,-2.0999,-2.1,0,-2.0952,-2.0957,-2.0998,-2.0991,-2.0997,-2.1014,-2.1021,-2.1032,-2.1032,-2.1025,-2.1029,-2.1011,-2.1032,-2.1001,-2.103,-2.1006,-2.1012,-2.1009,-2.1011,-2.1011,-2.0975,-2.1028,-2.1117,-2.1125,-2.1012,-2.1011,-2.101,0,-2.1015,-2.1033,-2.1059,-2.1061,-2.1054,-2.1067,-2.1065,-2.1063,-2.1069,-2.1075,-2.1079,-2.1087,-2.1092,-2.1099,-2.1083,-2.1061,-2.1114,-2.1081,-2.1109,-2.1109,-2.112,-2.112,-2.1211,-2.1126,-2.1126,-2.1126,-2.1125,0,-2.1085,-2.1111,-2.1088,-2.1104,-2.1132,-2.1111,-2.114,-2.1134,-2.1133,-2.1147,-2.1123,-2.1137,-2.1116,-2.1128,-2.1116,-2.1142,-2.1144,-2.1139,-2.1136,-2.1141,-2.1142,-2.1144,-2.1139,-2.1128,-2.1127,-2.1127,-2.1126,0,-2.116,-2.1146,-2.1173,-2.1164,-2.1162,-2.1183,-2.1176,-2.1191,-2.1181,-2.12,-2.1204,-2.1189,-2.1203,-2.1188,-2.12,-2.1192,-2.1226,-2.1217,-2.1226,-2.1223,-2.1251,-2.1249,-2.1347,-2.1358,-2.1267,-2.1268,-2.1268,0,-2.1206,-2.1224,-2.1218,-2.1225,-2.1225,-2.1238,-2.1244,-2.1224,-2.1232,-2.1233,-2.1247,-2.1258,-2.1266,-2.1288,-2.1279,-2.1288,-2.1279,-2.1312,-2.128,-2.1284,-2.1278,-2.1277,-2.1278,-2.1319,-2.132,-2.1321,-2.1322,0,-2.1287,-2.1279,-2.1288,-2.1295,-2.1303,-2.1307,-2.131,-2.1318,-2.1298,-2.1307,-2.132,-2.1326,-2.1338,-2.1349,-2.1356,-2.1354,-2.1335,-2.1332,-2.1339,-2.1344,-2.1348,-2.1345,-2.1243,-2.133,-2.1329,-2.1328,-2.1328,-2.1328,-2.1348,-2.1363,-2.1361,-2.1372,-2.1372,-2.1375,-2.1388,-2.138,-2.139,-2.1398,-2.1386,-2.1402,-2.1401,-2.1408,-2.1408,-2.142,-2.1406,-2.1416,-2.1418,-2.1421,-2.1425,-2.1347,-2.1422,-2.1421,-2.1421,-2.1421,-2.1421,0,-2.1427,-2.1424,-2.1435,-2.1439,-2.1448,-2.1428,-2.143,-2.1439,-2.1453,-2.1454,-2.1461,-2.1476,-2.1487,-2.1479,-2.1487,-2.1499,-2.149,-2.1502,-2.15,-2.15,-2.1438,-2.143,-2.1508,-2.1508,-2.1508,-2.1508,-2.1508,-2.1508,-2.147,-2.1494,-2.1486,-2.151,-2.1506,-2.1521,-2.1524,-2.1527,-2.1527,-2.1544,-2.1553,-2.1547,-2.1544,-2.1552,-2.1561,-2.1558,-2.1562,-2.1577,-2.1571,-2.1513,-2.1504,-2.1496,-2.1489,-2.1578,-2.1578,-2.1632,-2.1633,-2.1633]},{"header":{"parameterUnit":"m.s-1","parameterCategory":1,"la1":30.2991,"la2":30.254,"lo1":-89.0895,"lo2":-89.0444,"dy":0.0017,"dx":0.0017,"nx":28,"ny":28,"refTime":"2024-05-09T09:00:00:Z","depth":0,"parameterNumber":3,"parameterNumberName":"V-component_of_WINDS"},"data":[0,0,0,0,0,0,0,0,0,0,0,0,0,0,0,0,0,0,0,0,0,0,0,0,0,0,0,0,0,0,0,0,0,0,0,0,0,0,0,0,0,0,0,0,0,0,0,0,0,0,0,0,0,0,0,0,0,0,3.4432,3.4433,0,3.4519,3.452,3.4521,3.4538,3.4537,3.4537,3.4536,3.4624,3.4627,3.463,0,0,0,0,0,0,0,0,0,0,0,0,0,3.428,3.4282,3.4432,3.4433,3.4434,3.4519,3.452,3.4522,3.4538,3.4537,3.4536,3.4536,3.4623,3.4627,3.463,0,0,0,0,0,0,0,0,0,0,0,0,0,3.4354,3.4283,3.4432,3.4453,3.4455,3.4519,3.452,3.4522,3.4538,3.4537,3.4536,3.4535,3.4622,3.4626,3.4631,3.4679,0,0,3.4645,3.4647,0,0,0,0,0,0,0,0,3.435,3.436,3.4448,3.4451,3.4455,3.4517,3.4499,3.4575,3.4539,3.4507,3.4536,3.4535,3.4589,3.4596,3.4615,3.4683,3.4687,3.4645,3.4648,3.465,3.4651,0,0,0,0,0,0,0,3.4345,3.4356,3.4466,3.445,3.4453,3.4458,3.4467,3.4514,3.4553,3.4509,3.4511,3.4521,3.4591,3.4611,3.4617,3.4689,3.4645,3.4649,3.4652,3.4653,3.4804,3.4806,0,0,0,0,0,0,3.4336,3.4352,3.4464,3.4469,3.4399,3.4461,3.4472,3.4498,3.4552,3.456,3.4522,3.4522,3.4603,3.4612,3.462,3.4683,3.465,3.4654,3.4656,3.4803,3.4805,3.4806,0,0,0,0,0,0,3.4333,3.4346,3.446,3.4411,3.4426,3.4465,3.4494,3.45,3.452,3.4562,3.4569,3.4535,3.4603,3.4614,3.4665,3.4686,3.4656,3.466,3.4802,3.4804,3.4805,3.4806,0,0,0,0,0,0,3.4328,3.4345,3.4363,3.4411,3.4428,3.4503,3.4495,3.4503,3.4528,3.4528,3.4576,3.4583,3.4603,3.4659,3.467,3.4691,3.4663,3.48,3.4803,3.4805,3.4804,3.4808,3.4811,0,0,0,0,0,3.4323,3.4359,3.4364,3.4377,3.4452,3.4504,3.4514,3.4537,3.4529,3.4549,3.4576,3.4581,3.4682,3.4664,3.4676,3.47,3.4799,3.4802,3.4805,3.4803,3.4807,3.4811,0,0,0,0,0,0,3.431,3.4365,3.4371,3.4424,3.446,3.4507,3.4532,3.454,3.4578,3.4577,3.4604,3.4614,3.4665,3.4687,3.4666,3.4751,3.474,3.4746,3.4734,3.4739,3.4742,3.4735,3.4667,0,0,0,0,0,3.4314,3.4352,3.4398,3.444,3.4458,3.4492,3.4515,3.453,3.4568,3.4583,3.4613,3.465,3.469,3.4715,3.4754,3.4808,3.482,3.4831,3.4834,3.4836,3.4841,3.4873,3.4879,3.4816,3.4816,3.4816,0,0,3.4321,3.4356,3.4378,3.4438,3.4468,3.4507,3.4504,3.4545,3.4574,3.4589,3.464,3.4664,3.4706,3.476,3.4785,3.478,3.4861,3.484,3.4842,3.4845,3.4877,3.4883,3.4888,3.4818,3.4818,3.4817,0,0,3.4355,3.4385,3.4424,3.4454,3.4499,3.4522,3.4532,3.4579,3.4596,3.4648,3.466,3.4696,3.4763,3.4794,3.4818,3.4867,3.4874,3.4879,3.4895,3.4927,3.4932,3.4936,3.4955,3.4961,3.4884,3.4884,3.4884,0,3.4358,3.4418,3.4443,3.4484,3.4511,3.4528,3.4568,3.4596,3.4651,3.467,3.4664,3.4752,3.4781,3.4843,3.4855,3.4874,3.4887,3.4873,3.4929,3.4934,3.4939,3.4957,3.4964,3.4884,3.4884,3.4884,3.4884,0,3.442,3.4462,3.4488,3.4543,3.4573,3.4613,3.4645,3.4673,3.4686,3.471,3.4764,3.48,3.4848,3.4864,3.4876,3.4928,3.4924,3.4924,3.4913,3.4945,3.4962,3.4969,3.4884,3.4884,3.4884,3.4884,0,0,3.4446,3.4517,3.4526,3.4552,3.4605,3.4637,3.4679,3.4727,3.4751,3.4789,3.4826,3.4885,3.4885,3.4913,3.493,3.4957,3.4996,3.4953,3.4955,3.4961,3.5057,3.5058,3.5065,3.5001,3.5002,3.5004,3.5054,0,3.4487,3.4563,3.4589,3.4652,3.4692,3.471,3.4747,3.4783,3.4808,3.4845,3.4872,3.4914,3.491,3.4928,3.4956,3.4985,3.5016,3.4982,3.5036,3.5038,3.5025,3.5074,3.5074,3.512,3.5061,3.5062,3.5063,0,3.4544,3.4585,3.4653,3.4703,3.472,3.4753,3.4801,3.4836,3.4879,3.4894,3.4927,3.4942,3.4988,3.4976,3.5041,3.5017,3.5041,3.5059,3.5062,3.5068,3.5052,3.5082,3.5135,3.5142,3.5074,3.5073,3.5072,0,3.4558,3.463,3.468,3.4702,3.4761,3.4784,3.481,3.4852,3.488,3.4921,3.494,3.4986,3.5011,3.5047,3.5075,3.5063,3.5138,3.5127,3.5153,3.5153,3.5168,3.5166,3.5226,3.5183,3.5183,3.5182,3.5182,0,3.46,3.4641,3.4688,3.4719,3.4766,3.4796,3.4842,3.4868,3.4906,3.4943,3.4961,3.4996,3.503,3.507,3.5092,3.5144,3.5154,3.5169,3.5175,3.5168,3.5166,3.5184,3.5182,3.5184,3.5184,3.5183,3.5183,0,3.4623,3.4656,3.4712,3.4765,3.4779,3.4812,3.4857,3.4888,3.4914,3.4961,3.4974,3.5015,3.5063,3.5095,3.5155,3.517,3.5227,3.5231,3.5212,3.5215,3.524,3.5237,3.5313,3.5325,3.5273,3.5274,3.5274,0,3.4648,3.4681,3.4737,3.4764,3.479,3.4833,3.4862,3.4893,3.4923,3.4976,3.5002,3.5051,3.5092,3.5168,3.5203,3.5251,3.5257,3.528,3.5264,3.5257,3.5258,3.5256,3.526,3.5282,3.5283,3.5283,3.5283,0,3.469,3.4705,3.4747,3.4795,3.483,3.487,3.4909,3.493,3.4968,3.5001,3.5051,3.5083,3.5146,3.5196,3.5247,3.5274,3.5286,3.5289,3.5297,3.5291,3.5279,3.5287,3.522,3.5286,3.5286,3.5286,3.5286,3.5286,3.4715,3.4746,3.4791,3.4838,3.4872,3.4909,3.4942,3.4973,3.5015,3.5069,3.5085,3.5138,3.5182,3.5252,3.5281,3.5323,3.532,3.5332,3.5336,3.5338,3.5339,3.5272,3.5332,3.5332,3.5332,3.5332,3.5332,0,3.4758,3.4789,3.4832,3.4888,3.4925,3.4934,3.4979,3.501,3.5056,3.5096,3.5137,3.5196,3.5244,3.5285,3.5335,3.5361,3.5368,3.5374,3.5372,3.5379,3.5338,3.5326,3.5367,3.5367,3.5367,3.5367,3.5367,3.5367,3.4785,3.4838,3.486,3.493,3.4961,3.5012,3.5038,3.5073,3.5106,3.517,3.5211,3.5238,3.5279,3.5333,3.5379,3.539,3.5408,3.5412,3.5424,3.5385,3.5381,3.5377,3.5366,3.5416,3.5416,3.5462,3.5462,3.5462]}]]